Regional Weather Roundup
Issued by NWS

Home | Current Version | Previous Version | Text Only | Print | Product List | Glossary On
Versions: 1 2 3 4 5 6 7 8 9 10 11 12 13 14 15 16 17 18 19 20 21 22 23 24 25 26 27 28 29 30 31 32 33 34 35 36 37 38 39 40 41 42 43 44 45 46 47 48 49 50
000
ASUS44 KLIX 222210
RWRLA
LOUISIANA WEATHER ROUNDUP
NATIONAL WEATHER SERVICE NEW ORLEANS LA
500 PM CDT MON SEP 22 2014

NOTE: "FAIR" INDICATES FEW OR NO CLOUDS BELOW 12,000 FEET WITH NO
      SIGNIFICANT WEATHER AND/OR OBSTRUCTIONS TO VISIBILITY.
      SKY/WX - SKY CONDITION AND SIGNIFICANT WEATHER.
      TMP - AIR TEMPERATURE.    DP   - DEWPOINT TEMPERATURE.
      RH  - RELATIVE HUMIDITY.  PRES - PRESSURE.
      HX  - HEAT INDEX.         WCI  - WIND CHILL INDEX.

*  THESE STATIONS ARE NOT NWS OR FAA STATIONS AND ARE NOT UNDER
   NWS QUALITY CONTROL.

LAZ040-048-061>063-065-066-069-222300-
SOUTHEAST LOUISIANA

CITY           SKY/WX    TMP DP  RH WIND       PRES   REMARKS
N.O. AUDUBON     N/A     87  73  63 MISG        N/A  HX  95
N.O. INTL ARPT MOSUNNY   88  70  55 N18       29.96S
N.O. LAKEFRONT MOSUNNY   87  73  62 N18       29.97R
N.O. DOWNTOWN* FAIR      88  70  55 N12G18    29.96F
SLIDELL        SUNNY     87  66  49 N13G22    29.97R
BATON ROUGE    SUNNY     87  65  47 NE12      29.99S
BOOTHVILLE     MOSUNNY   85  70  60 E7        29.96S
BELLE CHASSE   LGT RAIN  81  71  71 NE6       29.96R
BOGALUSA*        N/A     87  56  35 NE10G17   30.01S
GALLIANO*      NOT AVBL
NEW ROADS*     FAIR      84  64  49 N12G21    30.02R
GONZALES*      FAIR      87  70  56 N6        29.97S
HAMMOND*       SUNNY     88  61  40 N10G16    30.00S
HOUMA*         MOSUNNY   82  59  44 NE3       29.96S
PORT FOURCHON* CLEAR     88  68  51 NE9       29.98S

$$

LAZ041-044-053-054-222300-
SOUTHWEST LOUISIANA

CITY           SKY/WX    TMP DP  RH WIND       PRES   REMARKS
LAKE CHARLES   SUNNY     87  69  54 NE15      30.00F
LAFAYETTE      SUNNY     88  67  49 N15       29.99S
PATTERSON      PTSUNNY   88  73  62 N9        29.99F HX  96
SALT POINT       N/A     88  73  61 VRB5      29.96S HX  95
NEW IBERIA     SUNNY     89  72  56 N14       29.98F HX  96
CHENAULT AIRPK NOT AVBL

$$

LAZ027-028-222300-
CENTRAL LOUISIANA

CITY           SKY/WX    TMP DP  RH WIND       PRES   REMARKS
FORT POLK      MOSUNNY   84  63  49 N10       30.04F
ALEXANDRIA INT SUNNY     85  56  37 N13       30.03F
ALEXANDRIA     SUNNY     86  55  34 MISG      30.05S

$$

LAZ001-002-222300-
NORTHWEST LOUISIANA

CITY           SKY/WX    TMP DP  RH WIND       PRES   REMARKS
SHREVEPORT     MOSUNNY   85  50  29 N12       30.09F
BARKSDALE AFB  SUNNY     85  48  27 NE9       30.10F
DTN SHREVEPORT SUNNY     84  50  30 N9        30.10S

$$

LAZ014-016-222300-
NORTHEAST LOUISIANA

CITY           SKY/WX    TMP DP  RH WIND       PRES   REMARKS
MONROE         SUNNY     83  50  31 NE10      30.10F
TALLULAH       SUNNY     84  50  30 NE10      30.07F

$$



USA.gov is the U.S. government's official web portal to all federal, state and local government web resources and services.